Flag for Canada Weather past 2 weeks in Waterloo, Ontario, Canada

23 °F


Feels Like: 23 °F
Forecast: 19 / 38 °F
Wind: 2 mph from Northwest

Location: Waterloo Well

Current Time: Nov 29, 2015 at 12:21:57 AM

Latest Report: Nov 28, 2015 at 11:00 PM

Visibility: 9 mi

Pressure: 30.34 "Hg

Humidity: 100%

Dew point: 23 °F

Location of WaterlooLocation

Historic Weather in Waterloo — Graph


Waterloo temperature yesterday

Maximum temperature yesterday: 36 °F (at 3:00 PM)
Minimum temperature yesterday: 23 °F (at 11:00 PM)
Average temperature yesterday: 31 °F

Past Weeks' High & Low Weather Summary

High59 °F (Nov 16, 2:00 PM)100% (Nov 15, 9:00 PM)30.58 "Hg (Nov 15, 9:00 PM)
Low7 °F (Nov 23, 5:00 AM)45% (Nov 20, 12:00 PM)29.57 "Hg (Nov 21, 11:00 PM)
Average39 °F81%30.18 "Hg
* Reported Nov 13 11:00 PM — Nov 28 11:00 PM, Waterloo, Weather by CustomWeather, © 2015

Note: Actual official high and low records may vary slightly from our data, if they occured in-between our weather recording intervals... More about our weather records


Waterloo weather history for previous 24 hours

Time TempWeatherWind HumidityBarometerVisibility
11:00 PM
Sat, Nov 28
23 °FClear.2 mph100%30.34 "Hg9 mi
10:00 PM25 °FClear.3 mph93%30.33 "Hg9 mi
9:00 PM27 °FClear.6 mph93%30.34 "Hg9 mi
8:00 PM27 °FClear.5 mph100%30.34 "Hg9 mi
7:00 PM27 °FClear.3 mph93%30.34 "Hg9 mi
6:00 PM28 °FClear.2 mph86%30.32 "Hg9 mi
5:00 PM30 °FClear.5 mph86%30.32 "Hg9 mi
4:00 PM36 °FSunny.7 mph70%30.30 "Hg9 mi
3:00 PM36 °FPassing clouds.3 mph70%30.30 "Hg9 mi
2:00 PM34 °FScattered clouds.7 mph81%30.32 "Hg9 mi
1:00 PM32 °FScattered clouds.6 mph80%30.32 "Hg9 mi
12:56 PM34 °FScattered clouds.7 mph75%30.33 "Hg9 mi
12:00 PM32 °FPartly sunny.6 mph80%30.34 "Hg9 mi
11:00 AM30 °FPassing clouds.7 mph86%30.36 "Hg9 mi
10:00 AM30 °FMostly cloudy.7 mph86%30.37 "Hg9 mi
9:00 AM32 °FPartly sunny.6 mph87%30.36 "Hg9 mi
8:00 AM30 °FPassing clouds.3 mph86%30.36 "Hg9 mi
7:00 AM32 °FMostly cloudy.6 mph87%30.36 "Hg9 mi
6:00 AM32 °FMostly cloudy.9 mph87%30.34 "Hg9 mi
5:00 AM32 °FMostly cloudy.10 mph87%30.35 "Hg9 mi
4:00 AM32 °FOvercast.7 mph87%30.33 "Hg9 mi
3:45 AM32 °FMostly cloudy.8 mph87%30.33 "Hg9 mi
3:00 AM32 °FOvercast.8 mph93%30.34 "Hg9 mi
1:00 AM34 °FMostly cloudy.7 mph87%30.33 "Hg9 mi
12:00 AM34 °FOvercast.8 mph87%30.34 "Hg9 mi
Weather by CustomWeather, © 2015

See weather overviewHow to use our weather pages